Change the Weather History Date:

Thursday, February 16, 2012

  Actual Average Record
Temperature  
Mean Temperature 32 °F -  
Max Temperature 37 °F - - ()
Min Temperature 26 °F - - ()
Degree Days  
Heating Degree Days 34    
Moisture  
Dew Point 24 °F    
Average Humidity 75    
Maximum Humidity 100    
Minimum Humidity 44    
Precipitation  
Precipitation 0.00 in - - ()
Sea Level Pressure  
Sea Level Pressure 30.00 in    
Wind  
Wind Speed 7 mph (WNW)    
Max Wind Speed 16 mph    
Max Gust Speed 25 mph    
Visibility 10 miles    
Events      
T = Trace of Precipitation, MM = Missing Value Source: NWS Daily Summary

Daily Weather History Graph

Daily Weather History Graph

Search for Another Location

Airport or City:

Trip Planner

Search our weather history database for the weather conditions in past years. The results will help you decide how hot, cold, wet, or windy it might be!

Date:

Astronomy

Feb. 16, 2012 Rise Set
Actual Time 7:10 AM CST 5:36 PM CST
Civil Twilight 6:40 AM CST 6:07 PM CST
Nautical Twilight 6:05 AM CST 6:42 PM CST
Astronomical Twilight 5:31 AM CST 7:16 PM CST
Moon 3:18 AM CST (2/16) 12:18 PM CST (2/16)
Length of Visible Light 11h 27m
Length of Day
10h 25m
Waning Crescent, 28% of the Moon is Illuminated
Feb 16
Waning Crescent
Feb 21
New
Feb 29
First Quarter
Mar 8
Full
Mar 14
Last Quarter

Hourly Weather History & Observations

Time (CST) Temp. Windchill Dew Point Humidity Pressure Visibility Wind Dir Wind Speed Gust Speed Precip Events Conditions
12:35 AM 32.0 °F 27.5 °F 32.0 °F 100% 29.98 in 7.0 mi West 4.6 mph - N/A   Overcast
12:55 AM 32.0 °F 26.4 °F 30.2 °F 93% 29.98 in 7.0 mi West 5.8 mph - N/A   Overcast
1:15 AM 32.0 °F 26.4 °F 30.2 °F 93% 29.98 in 7.0 mi West 5.8 mph - N/A   Overcast
1:35 AM 32.0 °F 26.4 °F 30.2 °F 93% 29.98 in 10.0 mi West 5.8 mph - N/A   Overcast
1:55 AM 32.0 °F 26.4 °F 30.2 °F 93% 29.99 in 10.0 mi WNW 5.8 mph - N/A   Overcast
2:15 AM 32.0 °F 25.6 °F 30.2 °F 93% 29.99 in 10.0 mi WNW 6.9 mph - N/A   Overcast
2:35 AM 32.0 °F 25.6 °F 28.4 °F 87% 29.99 in 10.0 mi WNW 6.9 mph - N/A   Mostly Cloudy
2:55 AM 30.2 °F 23.4 °F 28.4 °F 93% 29.98 in 10.0 mi WNW 6.9 mph - N/A   Clear
3:15 AM 30.2 °F 23.4 °F 28.4 °F 93% 29.99 in 10.0 mi WNW 6.9 mph - N/A   Clear
3:35 AM 30.2 °F 24.3 °F 28.4 °F 93% 29.99 in 10.0 mi WNW 5.8 mph - N/A   Clear
3:55 AM 30.2 °F 24.3 °F 28.4 °F 93% 29.99 in 10.0 mi WNW 5.8 mph - N/A   Clear
4:15 AM 28.4 °F 22.2 °F 26.6 °F 93% 30.00 in 10.0 mi West 5.8 mph - N/A   Clear
4:35 AM 28.4 °F 22.2 °F 26.6 °F 93% 30.00 in 10.0 mi WNW 5.8 mph - N/A   Clear
4:55 AM 28.4 °F 22.2 °F 26.6 °F 93% 30.00 in 10.0 mi West 5.8 mph - N/A   Clear
5:15 AM 26.6 °F 20.0 °F 26.6 °F 100% 30.00 in 7.0 mi West 5.8 mph - N/A   Clear
5:35 AM 26.6 °F 21.2 °F 24.8 °F 93% 29.99 in 7.0 mi West 4.6 mph - N/A   Clear
5:55 AM 26.6 °F 20.0 °F 24.8 °F 93% 29.98 in 7.0 mi West 5.8 mph - N/A   Clear
6:15 AM 26.6 °F 21.2 °F 26.6 °F 100% 29.98 in 7.0 mi West 4.6 mph - N/A   Scattered Clouds
6:35 AM 28.4 °F 22.2 °F 26.6 °F 93% 29.99 in 10.0 mi West 5.8 mph - N/A   Overcast
6:55 AM 28.4 °F 22.2 °F 26.6 °F 93% 29.98 in 10.0 mi WSW 5.8 mph - N/A   Mostly Cloudy
7:15 AM 28.4 °F 22.2 °F 26.6 °F 93% 29.99 in 10.0 mi West 5.8 mph - N/A   Mostly Cloudy
7:35 AM 28.4 °F 23.3 °F 26.6 °F 93% 30.00 in 10.0 mi West 4.6 mph - N/A   Overcast
7:55 AM 28.4 °F 22.2 °F 26.6 °F 93% 30.00 in 10.0 mi West 5.8 mph - N/A   Overcast
8:15 AM 28.4 °F 23.3 °F 26.6 °F 93% 30.00 in 10.0 mi West 4.6 mph - N/A   Overcast
8:35 AM 28.4 °F 22.2 °F 26.6 °F 93% 30.01 in 10.0 mi West 5.8 mph - N/A   Mostly Cloudy
8:55 AM 30.2 °F 21.9 °F 26.6 °F 86% 30.01 in 10.0 mi West 9.2 mph - N/A   Mostly Cloudy
9:15 AM 30.2 °F 22.6 °F 26.6 °F 86% 30.01 in 10.0 mi WNW 8.1 mph - N/A   Overcast
9:35 AM 30.2 °F 21.9 °F 26.6 °F 86% 30.01 in 10.0 mi WNW 9.2 mph - N/A   Mostly Cloudy
9:55 AM 32.0 °F 25.6 °F 26.6 °F 80% 30.01 in 10.0 mi WNW 6.9 mph - N/A   Scattered Clouds
10:15 AM 32.0 °F 24.8 °F 26.6 °F 80% 30.01 in 10.0 mi NW 8.1 mph - N/A   Clear
10:35 AM 33.8 °F 24.8 °F 26.6 °F 75% 30.02 in 10.0 mi WNW 12.7 mph 17.3 mph N/A   Scattered Clouds
10:55 AM 33.8 °F 25.8 °F 24.8 °F 70% 30.02 in 10.0 mi NW 10.4 mph 18.4 mph N/A   Clear
11:15 AM 35.6 °F 29.9 °F 24.8 °F 65% 30.02 in 10.0 mi NW 6.9 mph - N/A   Scattered Clouds
11:35 AM 35.6 °F 28.6 °F 23.0 °F 60% 30.02 in 10.0 mi NW 9.2 mph - N/A   Scattered Clouds
11:55 AM 33.8 °F 24.8 °F 21.2 °F 60% 30.01 in 10.0 mi WNW 12.7 mph - N/A   Mostly Cloudy
12:15 PM 35.6 °F 28.6 °F 21.2 °F 56% 30.01 in 10.0 mi WNW 9.2 mph - N/A   Mostly Cloudy
12:35 PM 33.8 °F 25.8 °F 19.4 °F 56% 30.01 in 10.0 mi WNW 10.4 mph - N/A   Scattered Clouds
12:55 PM 35.6 °F 27.1 °F 21.2 °F 56% 30.01 in 10.0 mi West 12.7 mph 17.3 mph N/A   Mostly Cloudy
1:15 PM 35.6 °F 27.1 °F 21.2 °F 56% 30.00 in 10.0 mi WNW 12.7 mph - N/A   Overcast
1:35 PM 35.6 °F 25.9 °F 21.2 °F 56% 30.00 in 10.0 mi WNW 16.1 mph 19.6 mph N/A   Overcast
2:15 PM 35.6 °F 26.2 °F 19.4 °F 52% 29.98 in 10.0 mi NNW 15.0 mph - N/A   Overcast
2:35 PM 37.4 °F 28.9 °F 17.6 °F 45% 29.98 in 10.0 mi NW 13.8 mph 25.3 mph N/A   Mostly Cloudy
3:15 PM 35.6 °F 27.5 °F 17.6 °F 48% 30.00 in 10.0 mi NW 11.5 mph 16.1 mph N/A   Overcast
3:35 PM 35.6 °F 28.0 °F 15.8 °F 44% 30.00 in 10.0 mi NW 10.4 mph - N/A   Overcast
3:55 PM 35.6 °F 28.6 °F 17.6 °F 48% 30.00 in 10.0 mi NW 9.2 mph - N/A   Overcast
4:15 PM 33.8 °F 27.0 °F 19.4 °F 56% 30.01 in 10.0 mi NNW 8.1 mph - N/A   Overcast
4:35 PM 33.8 °F 27.7 °F 19.4 °F 56% 30.01 in 10.0 mi NW 6.9 mph - N/A   Overcast
4:55 PM 33.8 °F 26.4 °F 19.4 °F 56% 30.01 in 10.0 mi NNW 9.2 mph - N/A   Overcast
5:15 PM 33.8 °F 28.6 °F 19.4 °F 56% 30.01 in 10.0 mi NW 5.8 mph - N/A   Overcast
5:35 PM 33.8 °F 30.8 °F 19.4 °F 56% 30.02 in 10.0 mi NW 3.5 mph - N/A   Overcast
6:15 PM 32.0 °F 28.7 °F 17.6 °F 55% 30.03 in 10.0 mi West 3.5 mph - N/A   Overcast
6:35 PM 32.0 °F 28.7 °F 17.6 °F 55% 30.03 in 10.0 mi West 3.5 mph - N/A   Overcast
6:55 PM 32.0 °F 27.5 °F 17.6 °F 55% 30.03 in 10.0 mi West 4.6 mph - N/A   Overcast
7:15 PM 32.0 °F 28.7 °F 19.4 °F 60% 30.03 in 10.0 mi West 3.5 mph - N/A   Overcast
7:35 PM 30.2 °F 26.7 °F 19.4 °F 64% 30.03 in 10.0 mi West 3.5 mph - N/A   Overcast
7:55 PM 30.2 °F 25.4 °F 19.4 °F 64% 30.03 in 10.0 mi West 4.6 mph - N/A   Overcast
8:15 PM 32.0 °F 27.5 °F 19.4 °F 60% 30.03 in 10.0 mi West 4.6 mph - N/A   Overcast
8:35 PM 30.2 °F 24.3 °F 17.6 °F 60% 30.03 in 10.0 mi West 5.8 mph - N/A   Mostly Cloudy
8:55 PM 30.2 °F 26.7 °F 17.6 °F 60% 30.03 in 10.0 mi WSW 3.5 mph - N/A   Mostly Cloudy
9:15 PM 30.2 °F 26.7 °F 17.6 °F 60% 30.03 in 10.0 mi WSW 3.5 mph - N/A   Overcast
9:35 PM 30.2 °F 26.7 °F 17.6 °F 60% 30.03 in 10.0 mi WSW 3.5 mph - N/A   Overcast
9:55 PM 30.2 °F 25.4 °F 19.4 °F 64% 30.03 in 10.0 mi West 4.6 mph - N/A   Overcast
10:15 PM 30.2 °F 25.4 °F 19.4 °F 64% 30.03 in 10.0 mi WSW 4.6 mph - N/A   Overcast
10:35 PM 30.2 °F 25.4 °F 19.4 °F 64% 30.03 in 10.0 mi WSW 4.6 mph - N/A   Overcast
10:55 PM 28.4 °F 24.6 °F 19.4 °F 69% 30.02 in 10.0 mi WSW 3.5 mph - N/A   Scattered Clouds
11:15 PM 28.4 °F 24.6 °F 19.4 °F 69% 30.02 in 10.0 mi WSW 3.5 mph - N/A   Mostly Cloudy
11:35 PM 28.4 °F 23.3 °F 19.4 °F 69% 30.02 in 10.0 mi WSW 4.6 mph - N/A   Overcast
11:55 PM 28.4 °F - 19.4 °F 69% 30.01 in 10.0 mi Calm Calm - N/A   Overcast